Temperature
11 11 11 11 11 12 12 12 12 12 13 14 15 15 15 16 16 16 16 16 16 17 16 16 16 16 16 16 16 16 16 16 16 16 16 16 16 16
11 11 11 11 11 11 11 11 12 12 12 13 14 15 15 15 16 16 16 16 16 16 16 16 16 16 16 16 16 16 16 16 16 16 16 16 16 16
10 10 11 11 11 11 11 11 11 11 12 13 13 14 14 15 15 15 16 16 16 16 16 16 16 16 16 16 16 16 16 16 16 16 16 16 16 16
10 10 10 10 10 10 11 11 11 11 11 12 13 13 14 14 15 15 15 15 15 16 16 16 16 16 16 16 16 16 16 16 16 16 16 16 16 16
9 9 9 10 10 10 10 10 11 11 11 11 12 13 13 14 14 15 15 15 15 15 15 15 15 15 15 15 16 16 16 16 16 16 16 16 16 16
9 9 9 9 9 10 10 10 10 10 11 11 11 12 12 13 13 14 14 14 15 15 15 15 15 15 15 15 15 15 15 15 15 16 16 16 16 16
8 8 9 9 9 9 9 10 10 10 10 10 11 11 12 12 13 13 13 14 14 14 14 14 14 14 15 15 15 15 15 15 15 15 15 16 16 16
8 8 8 8 9 9 9 9 10 10 10 10 10 11 11 12 12 12 13 13 13 13 13 14 14 14 14 14 15 15 15 15 15 15 15 15 15 15
8 8 8 8 8 8 9 9 9 9 10 10 10 10 11 11 11 12 12 13 13 13 13 13 13 13 13 14 14 14 14 15 15 15 15 15 15 15
8 8 8 8 8 8 8 8 9 9 9 9 10 10 10 11 11 11 12 12 12 12 12 13 12 13 13 13 13 14 14 14 14 14 14 14 15 15
7 7 7 7 8 8 8 8 8 9 9 9 9 10 10 10 10 11 11 11 11 11 12 12 12 12 12 12 13 13 13 13 14 14 14 14 14 14
7 7 7 7 7 7 7 8 8 8 9 9 9 9 10 10 10 10 11 11 11 11 11 11 11 11 11 11 12 12 13 13 13 13 13 13 13 13
7 7 7 7 7 7 7 7 8 8 8 9 9 9 9 9 10 10 10 10 11 11 11 11 11 11 11 11 11 11 12 12 12 12 12 12 12 12
6 7 7 7 7 7 7 7 7 8 8 8 8 9 9 9 9 10 10 10 10 11 11 11 12 12 12 11 11 11 11 11 12 12 12 12 12 12
6 6 6 6 6 6 7 7 7 7 7 8 8 9 9 9 9 9 9 9 10 10 10 11 11 12 12 12 12 12 11 11 11 11 12 12 12 12
6 6 6 6 6 6 6 7 7 7 7 8 8 8 9 9 9 9 9 9 9 10 10 10 11 11 11 11 12 12 12 12 11 11 11 11 11 11
6 6 6 6 6 6 6 6 7 7 7 7 8 8 8 8 9 9 9 9 9 9 10 10 10 10 11 11 11 12 12 12 12 12 11 11 11 11
6 6 6 6 6 6 6 6 7 7 7 7 8 8 8 8 8 9 9 9 9 9 9 9 10 10 10 10 10 11 11 11 11 11 11 11 11 11
6 6 6 6 6 6 6 6 7 7 7 7 8 8 8 8 8 8 8 9 9 9 9 9 9 9 9 9 10 10 11 11 11 11 11 11 11 11
6 6 6 6 6 6 6 6 7 7 7 7 7 8 8 8 8 8 8 9 9 9 9 9 9 10 10 10 10 10 10 11 11 11 10 10 10 10
6 6 6 6 6 6 6 7 7 7 7 7 7 8 8 8 8 8 8 9 9 9 9 9 9 9 9 9 10 10 10 10 10 10 10 10 10 9
6 6 6 6 6 6 7 7 7 7 7 7 7 8 8 8 8 8 8 8 9 9 9 9 9 9 9 9 9 10 10 9 9 9 10 10 10 10
7 6 6 6 6 6 7 7 7 7 7 7 7 8 8 8 8 8 8 8 8 8 9 9 9 9 9 9 9 9 9 9 9 9 9 9 9 9
Wind_Speed
6 6 5 5 4 4 4 3 3 4 3 3 2 3 4 5 8 12 13 17 19 20 21 21 21 22 22 22 21 21 20 20 20 19 19 19 19 20
6 6 6 5 5 4 4 4 4 4 4 3 2 2 3 4 6 8 11 14 18 19 19 19 19 19 19 19 18 18 17 17 17 16 16 16 16 16
7 7 8 7 5 5 4 4 4 4 5 4 3 2 2 3 3 5 7 9 11 16 17 17 17 17 17 16 16 15 14 14 13 13 13 13 13 13
9 8 9 7 7 6 5 5 4 4 5 5 3 2 2 4 4 5 4 6 8 13 16 16 17 16 16 15 14 14 13 12 11 10 10 10 10 10
9 9 10 9 9 7 7 6 5 5 4 4 4 2 2 3 4 4 5 5 6 10 14 15 16 16 15 14 14 13 12 11 11 10 9 9 8 8
10 10 10 10 10 9 8 8 6 5 5 4 4 3 3 3 4 5 5 4 5 6 8 11 13 14 13 13 13 12 12 11 10 9 9 8 7 7
9 10 10 12 13 10 8 8 7 6 5 5 4 4 3 4 5 4 6 6 4 4 7 6 7 7 8 10 11 11 11 11 10 9 8 7 7 6
10 9 10 11 13 13 13 12 11 9 8 6 5 6 5 5 4 5 6 7 5 5 6 5 5 6 5 6 9 11 11 10 10 9 9 8 7 6
10 9 9 9 10 10 11 13 13 14 12 8 7 8 6 6 6 8 8 8 5 8 7 5 5 5 4 7 10 11 11 11 11 10 10 9 9 8
10 10 10 9 9 9 9 9 9 10 12 10 8 8 7 7 7 6 6 5 5 6 6 5 5 4 4 6 9 11 11 12 12 12 12 12 12 12
9 9 9 10 10 11 10 9 9 8 9 11 10 9 9 10 8 6 7 7 6 5 3 4 5 4 4 3 6 10 12 13 13 14 14 14 15 14
7 7 10 11 11 11 10 10 10 8 7 7 8 8 8 8 10 9 8 8 5 5 5 6 6 5 4 3 4 6 8 10 13 14 14 14 14 11
6 6 7 10 12 12 12 10 10 8 7 7 6 6 5 6 6 6 6 6 6 4 8 7 6 5 5 5 4 4 6 6 7 9 11 12 12 10
6 6 6 9 11 11 10 10 11 9 6 6 6 6 6 6 6 7 6 5 4 4 10 9 6 8 7 6 5 5 5 6 7 6 8 11 11 11
6 8 9 10 9 8 10 12 10 8 7 7 7 7 6 6 6 5 5 4 3 5 10 7 7 9 7 6 7 7 5 5 6 7 7 6 6 7
5 6 7 7 7 6 6 7 7 8 8 8 8 6 5 5 6 5 5 5 4 4 6 9 9 11 6 7 8 8 8 8 8 7 7 5 6 6
3 3 3 3 4 4 5 5 6 7 8 7 7 6 6 6 5 5 5 5 5 6 6 5 5 5 5 7 7 9 9 7 9 9 7 6 5 6
3 3 4 4 5 5 6 6 6 7 7 7 7 7 7 7 6 5 5 6 7 7 7 7 7 5 3 2 4 9 9 8 8 9 7 7 6 6
4 4 4 5 5 5 6 6 6 7 7 7 7 7 7 7 7 7 7 7 7 7 8 8 9 8 8 6 4 7 9 9 10 8 7 6 6 7
4 4 5 5 5 5 5 6 6 6 6 7 7 7 8 7 7 8 8 8 7 7 7 9 9 9 9 8 6 5 11 11 9 10 7 4 4 6
4 4 5 5 5 5 5 6 6 7 7 7 7 8 8 8 8 8 8 9 8 7 9 9 9 9 6 7 7 5 7 11 11 8 9 7 6 6
4 4 4 4 5 5 5 5 6 7 8 8 8 8 8 8 9 9 9 8 8 8 8 7 9 9 6 8 8 8 7 7 8 11 11 7 6 8
4 4 4 4 4 4 5 6 7 7 8 8 8 8 9 8 8 9 9 9 8 8 8 8 8 7 7 8 8 8 10 10 8 8 5 3 4 6
Wind_Direction
238 236 235 243 243 241 242 238 247 269 277 263 240 229 222 212 206 204 204 199 196 195 195 196 197 198 199 202 205 208 210 214 217 218 221 224 227 228
241 239 239 240 244 241 239 243 240 245 264 272 252 250 228 218 199 199 200 190 188 188 188 188 189 191 192 195 198 200 204 207 209 212 216 221 225 227
248 242 244 239 235 237 234 237 238 238 257 277 257 245 206 186 182 181 181 177 178 179 178 179 178 179 181 183 187 189 192 196 200 205 210 214 219 224
250 245 248 244 234 232 228 232 235 234 242 267 264 235 201 174 165 165 164 158 159 166 166 167 166 167 168 172 175 176 178 183 188 192 198 205 213 218
246 244 245 241 239 234 227 225 229 236 232 254 261 227 204 165 152 150 145 133 137 148 150 152 153 154 158 161 164 167 170 175 180 184 189 196 205 213
246 243 243 237 237 234 230 224 222 226 227 241 250 227 207 170 157 158 154 146 137 136 131 134 138 140 145 151 156 160 165 170 173 176 181 187 197 208
248 243 241 240 236 230 228 221 216 218 218 226 234 221 205 179 175 168 163 148 134 141 135 133 133 131 134 140 146 152 157 162 167 169 172 176 183 192
252 250 247 249 245 235 230 220 210 210 213 215 221 218 213 196 176 172 162 161 164 160 146 139 138 134 133 140 145 149 152 155 158 160 161 160 160 162
250 249 250 245 235 236 232 227 222 215 206 206 216 216 208 199 187 183 183 180 168 161 149 143 139 133 126 130 143 148 149 147 146 147 147 144 141 137
249 245 243 245 240 231 230 230 227 225 219 215 216 215 209 198 192 188 178 161 129 151 152 143 144 136 125 126 143 146 146 143 140 138 136 132 125 118
253 247 240 241 234 225 223 223 225 229 226 219 215 211 197 189 179 170 169 172 165 165 156 136 139 129 128 131 136 144 144 142 138 135 132 129 124 114
259 251 243 239 233 223 221 216 216 220 212 209 215 213 202 191 182 184 183 182 167 166 161 144 147 145 143 138 143 146 140 137 134 133 134 133 131 121
258 256 248 236 233 226 219 219 217 208 203 197 196 197 193 190 191 191 187 191 182 170 163 150 153 153 146 144 150 151 145 142 136 130 130 132 134 131
252 254 250 240 233 228 222 218 210 201 196 189 188 194 196 197 193 190 189 189 191 177 167 158 154 162 151 148 154 154 148 149 146 139 135 127 117 115
252 252 249 241 234 230 222 212 203 200 194 194 196 202 202 194 179 178 176 171 162 166 167 170 156 159 155 152 153 159 158 162 160 151 148 148 147 144
259 255 248 240 229 220 212 206 203 198 196 199 198 194 180 176 179 177 174 168 166 169 170 170 166 162 158 151 154 162 165 165 167 161 150 148 150 155
258 248 231 222 218 213 204 196 194 194 199 197 188 178 175 178 179 175 172 168 175 177 170 159 154 147 143 150 155 163 160 157 163 161 157 156 163 168
230 233 230 221 217 214 208 201 195 195 196 193 188 183 179 179 177 174 176 178 180 182 176 162 155 139 117 88 143 160 161 159 160 163 161 161 169 175
224 234 232 227 220 212 206 202 200 196 191 191 188 185 179 178 178 180 182 185 186 182 178 171 170 169 173 174 165 167 162 156 156 163 171 169 172 173
230 235 234 229 222 215 209 206 198 188 188 190 188 185 182 179 181 183 186 188 184 179 178 179 182 182 183 171 157 166 167 159 161 165 165 149 119 123
248 241 236 229 224 218 211 206 199 194 193 191 192 189 186 183 186 189 189 184 180 179 185 189 188 164 130 128 134 145 163 169 165 162 159 154 150 157
262 253 245 237 229 221 209 202 203 202 198 197 195 192 189 188 190 191 188 185 184 184 187 177 159 158 162 169 164 153 148 151 144 145 151 151 164 177
261 261 258 247 236 224 212 207 208 205 200 198 195 191 188 190 193 192 189 188 185 181 173 165 164 171 177 172 161 152 153 155 153 149 146 95 141 143
Height
1480 1480 1480 1480 1480 1479 1480 1480 1480 1478 1477 1477 1479 1481 1483 1487 1491 1494 1498 1502 1507 1511 1515 1519 1524 1529 1533 1537 1541 1545 1548 1551 1555 1558 1560 1563 1566 1568
1474 1474 1474 1475 1475 1475 1475 1475 1476 1476 1474 1474 1475 1477 1479 1482 1486 1490 1494 1498 1502 1506 1510 1514 1519 1523 1528 1532 1536 1539 1543 1546 1549 1552 1555 1557 1560 1562
1467 1468 1468 1469 1469 1469 1470 1470 1471 1471 1471 1471 1472 1473 1475 1478 1481 1485 1489 1493 1497 1500 1505 1509 1514 1518 1523 1527 1531 1534 1538 1541 1544 1547 1549 1552 1554 1556
1461 1461 1462 1463 1463 1464 1464 1465 1466 1467 1468 1467 1468 1469 1471 1474 1477 1481 1485 1489 1492 1496 1501 1505 1509 1514 1518 1522 1526 1529 1533 1536 1539 1542 1544 1547 1549 1551
1454 1454 1455 1456 1457 1458 1459 1460 1461 1462 1463 1463 1463 1465 1467 1469 1473 1476 1480 1484 1489 1493 1497 1501 1505 1510 1514 1518 1521 1525 1528 1531 1534 1537 1539 1542 1544 1546
1447 1447 1448 1449 1450 1452 1453 1454 1455 1456 1458 1459 1460 1461 1463 1465 1468 1472 1476 1480 1484 1489 1493 1497 1501 1506 1510 1514 1517 1521 1524 1527 1530 1532 1535 1537 1539 1541
1440 1440 1441 1443 1444 1445 1447 1448 1450 1451 1453 1454 1455 1456 1459 1461 1464 1468 1472 1476 1481 1485 1488 1493 1497 1501 1506 1510 1513 1516 1520 1523 1526 1528 1531 1533 1535 1537
1433 1433 1434 1436 1437 1439 1440 1442 1444 1446 1447 1449 1450 1452 1454 1457 1461 1464 1468 1472 1476 1481 1485 1489 1494 1498 1502 1506 1509 1513 1516 1519 1522 1524 1527 1529 1530 1532
1426 1427 1428 1429 1430 1432 1434 1436 1438 1440 1443 1445 1446 1448 1450 1453 1456 1460 1463 1467 1471 1476 1481 1485 1490 1494 1499 1502 1506 1509 1513 1515 1518 1521 1523 1525 1527 1528
1420 1421 1421 1422 1424 1426 1427 1429 1431 1434 1437 1439 1441 1443 1446 1449 1452 1456 1459 1463 1468 1472 1477 1481 1486 1490 1495 1499 1503 1506 1509 1512 1515 1517 1519 1521 1523 1525
1414 1414 1415 1416 1418 1420 1422 1424 1426 1428 1432 1434 1437 1439 1442 1445 1448 1451 1455 1459 1462 1467 1472 1476 1482 1487 1492 1496 1499 1503 1506 1509 1512 1514 1517 1519 1520 1522
1408 1408 1409 1410 1412 1414 1416 1418 1420 1423 1426 1429 1432 1435 1438 1441 1444 1447 1451 1455 1458 1462 1466 1472 1478 1483 1488 1492 1496 1499 1503 1506 1509 1511 1514 1516 1519 1520
1402 1402 1403 1404 1406 1407 1410 1412 1415 1419 1421 1425 1427 1431 1434 1437 1440 1444 1447 1450 1454 1458 1462 1467 1473 1478 1483 1487 1492 1496 1499 1502 1505 1508 1511 1514 1517 1519
1398 1398 1398 1399 1400 1402 1404 1406 1410 1413 1416 1419 1423 1426 1429 1433 1436 1440 1443 1447 1450 1454 1458 1463 1468 1473 1477 1482 1487 1491 1495 1499 1503 1506 1509 1511 1514 1517
1393 1393 1393 1393 1394 1396 1398 1401 1405 1408 1411 1414 1417 1421 1425 1429 1432 1436 1440 1443 1447 1450 1455 1459 1464 1468 1473 1477 1481 1486 1491 1495 1499 1503 1506 1509 1512 1515
1389 1388 1388 1389 1390 1391 1394 1396 1399 1402 1405 1409 1413 1418 1422 1425 1429 1432 1435 1439 1443 1447 1450 1455 1460 1465 1469 1474 1479 1482 1487 1491 1495 1499 1503 1507 1510 1513
1385 1384 1384 1385 1386 1387 1389 1392 1395 1398 1401 1405 1410 1413 1417 1422 1425 1428 1431 1435 1439 1442 1446 1451 1456 1461 1466 1470 1474 1479 1483 1487 1491 1495 1500 1503 1507 1511
1381 1381 1381 1381 1382 1383 1385 1388 1391 1394 1397 1401 1406 1410 1414 1418 1421 1425 1428 1432 1435 1439 1442 1447 1451 1456 1461 1466 1471 1475 1479 1483 1487 1492 1496 1500 1504 1508
1378 1377 1378 1378 1379 1380 1382 1384 1387 1390 1394 1398 1402 1406 1410 1414 1418 1422 1425 1429 1432 1435 1439 1443 1447 1451 1456 1460 1465 1471 1475 1479 1484 1488 1493 1497 1501 1506
1375 1375 1375 1375 1376 1378 1379 1382 1384 1387 1391 1395 1398 1403 1407 1411 1415 1418 1422 1425 1428 1431 1435 1439 1443 1447 1452 1457 1461 1466 1471 1476 1480 1485 1489 1494 1499 1503
1373 1373 1373 1373 1374 1375 1377 1379 1382 1385 1388 1391 1395 1399 1403 1407 1411 1415 1418 1422 1425 1428 1432 1436 1440 1445 1450 1455 1459 1462 1467 1472 1477 1481 1486 1490 1494 1498
1372 1371 1371 1371 1372 1373 1374 1376 1378 1381 1384 1388 1391 1395 1399 1403 1407 1411 1414 1418 1421 1425 1430 1434 1437 1441 1445 1450 1454 1458 1463 1468 1473 1478 1484 1487 1490 1493
1370 1369 1368 1368 1369 1370 1371 1373 1375 1377 1380 1384 1387 1391 1395 1399 1403 1407 1411 1415 1418 1422 1426 1430 1434 1438 1442 1446 1450 1455 1460 1464 1469 1474 1479 1484 1489 1493